{"data":{"norad_id":58785,"epoch":"2026-09-20T22:07:19.752096Z","epoch_age_seconds":116176,"freshness":"FRESH","line1":"1 58785U 24011W   26263.92175639  .00000279  00000+0  19389-4 0  9993","line2":"2 58785  53.1615  80.0821 0001298  83.5655 276.5496 15.34394486151684","mean_motion":15.34394486,"eccentricity":0.0001298,"inclination_deg":53.1615,"raan_deg":80.0821,"arg_perigee_deg":83.5655,"mean_anomaly_deg":276.5496,"bstar":1.9389e-5,"rev_number":15168,"period_min":93.848095332637,"perigee_km":461.83168583576,"apogee_km":463.60757221665,"semimajor_km":6840.8566290262,"source":"CELESTRAK","updated_at":"2026-09-21T09:00:33.978312Z"}}